View from above orbital plane
|
View from above satellite
|
Ground track
|
The orbit data is extracted from the following two-line orbital elements,
1 00058U 60013A 21110.33110396 .00000101 00000-0 26847-4 0 9997
2 00058 28.3286 337.7576 0164949 89.9612 271.9834 13.46326083980007
Epoch (UTC): | 20 April 2021 07:56:47 |
Eccentricity: | 0.0164949 |
inclination: | 28.3286° |
perigee height: | 962 km |
apogee height: | 1209 km |
right ascension of ascending node: | 337.7576° |
argument of perigee: | 89.9612° |
revolutions per day: | 13.46326083 |
mean anomaly at epoch: | 271.9834° |
orbit number at epoch: | 98000 |
The dashed part of the orbit path shows where the satellite is in the earth's shadow,
|
|